TEXX · Horizon Kinetics Texas ETF ETF
$30.68
-0.06 (-0.20%)
At close · Sep 4
Daily short-sale volume published by FINRA from its trade-reporting facilities. It measures how many shares were sold short each day as a share of total volume — a daily flow, not the total outstanding short position.
Short Volume
| Date | Short Volume | Short Exempt | Total Volume | Short % |
|---|---|---|---|---|
| 2026-09-04 | 5 | 0 | 6 | 81.6% |
| 2026-09-03 | 9 | 0 | 18 | 49.6% |
| 2026-09-02 | 23 | 0 | 24 | 95.3% |
| 2026-09-01 | 8 | 0 | 93 | 8.6% |
| 2026-08-31 | 113 | 0 | 165 | 68.4% |
| 2026-08-28 | 721 | 0 | 943 | 76.4% |
| 2026-08-27 | 103 | 0 | 900 | 11.4% |
| 2026-08-26 | 104 | 0 | 233 | 44.6% |
| 2026-08-25 | 297 | 0 | 697 | 42.6% |
| 2026-08-24 | 125 | 0 | 333 | 37.6% |
| 2026-08-21 | 3 | 0 | 7 | 40.6% |
| 2026-08-20 | 239 | 0 | 558 | 42.8% |
| 2026-08-19 | 225 | 0 | 233 | 96.5% |
| 2026-08-18 | 227 | 0 | 232 | 97.8% |
| 2026-08-17 | 351 | 0 | 1,057 | 33.2% |
| 2026-08-14 | 4 | 0 | 1,224 | 0.3% |
| 2026-08-13 | 120 | 0 | 324 | 37.0% |
| 2026-08-12 | 351 | 0 | 466 | 75.3% |
| 2026-08-11 | 154 | 0 | 179 | 85.9% |
| 2026-08-10 | 203 | 0 | 407 | 49.9% |
| 2026-08-07 | 246 | 0 | 250 | 98.3% |
| 2026-08-06 | 8 | 0 | 13 | 60.9% |
| 2026-08-05 | 16 | 0 | 228 | 7.0% |
| 2026-08-04 | 106 | 0 | 1,911 | 5.5% |
| 2026-08-03 | 177 | 0 | 622 | 28.4% |
| 2026-07-31 | 303 | 0 | 304 | 99.6% |
| 2026-07-30 | 5 | 0 | 18 | 28.1% |
| 2026-07-29 | 20 | 0 | 123 | 16.0% |
| 2026-07-28 | 403 | 0 | 458 | 88.1% |
| 2026-07-27 | 14 | 0 | 49 | 28.5% |
| 2026-07-24 | 19 | 0 | 26 | 72.6% |
| 2026-07-23 | 2,161 | 0 | 2,198 | 98.3% |
| 2026-07-22 | 30 | 0 | 36 | 82.8% |
| 2026-07-21 | 864 | 0 | 869 | 99.5% |
| 2026-07-20 | 116 | 0 | 233 | 49.9% |
| 2026-07-17 | 5 | 0 | 14 | 36.5% |
| 2026-07-16 | 1 | 0 | 11 | 9.3% |
| 2026-07-15 | 14 | 0 | 102 | 13.8% |
| 2026-07-14 | 1 | 0 | 144 | 0.7% |
| 2026-07-13 | 1 | 0 | 126 | 0.6% |
| 2026-07-10 | 18 | 0 | 22 | 83.1% |
| 2026-07-09 | 78 | 0 | 84 | 93.2% |
| 2026-07-08 | 78 | 0 | 3,083 | 2.5% |
| 2026-07-07 | 5,576 | 0 | 5,793 | 96.3% |
| 2026-07-06 | 10 | 0 | 68 | 14.8% |
| 2026-07-02 | 121 | 0 | 242 | 50.1% |
| 2026-07-01 | 9 | 0 | 22 | 41.5% |
| 2026-06-30 | 5,130 | 0 | 5,136 | 99.9% |
| 2026-06-29 | 3 | 0 | 22 | 13.8% |
| 2026-06-26 | 1 | 0 | 2 | 59.9% |
Showing 1–50 of 60 days